Dewpoint
43 40 40 39 40 41 42 43 43 43 41 39 37 35 33 32 32 32 34 35 35 35
37 37 37 38 38 40 41 42 43 43 42 40 38 36 34 31 30 31 32 34 35 36
35 35 35 35 36 37 39 41 43 43 42 41 40 38 35 33 31 30 31 31 33 35
34 34 34 35 34 35 37 40 42 43 42 42 40 39 37 34 33 31 30 30 31 32
33 34 34 34 36 37 38 40 42 42 42 41 41 40 38 36 34 31 30 29 29 30
32 32 32 33 35 37 38 40 40 40 40 40 40 40 39 37 35 34 32 30 29 29
31 31 32 32 32 32 34 36 37 37 37 38 38 38 38 37 36 34 33 31 30 28
31 32 32 33 33 33 33 33 33 33 34 35 35 36 36 36 36 35 34 33 30 29
31 31 31 32 32 33 33 33 33 33 34 35 34 34 36 37 36 35 36 34 32 30
30 31 31 31 31 32 32 32 32 32 32 32 33 34 36 36 36 36 35 35 33 30
30 30 30 31 31 31 32 32 32 32 32 32 32 33 34 35 35 35 35 35 35 32
30 30 30 30 30 31 31 32 32 31 31 31 31 32 32 33 32 33 33 34 34 33
30 30 30 30 31 31 31 31 31 30 31 30 30 30 30 31 31 31 32 33 33 33
29 29 29 28 29 29 30 30 30 29 29 28 28 28 29 31 32 31 32 32 32 32
Wind_Speed
6 7 8 10 10 11 11 11 10 9 9 10 9 8 8 8 8 8 7 8 7 7
5 7 9 11 11 11 12 11 11 11 11 10 10 10 9 9 10 10 9 9 8 8
6 8 9 10 11 12 12 12 12 11 12 11 11 11 12 11 11 11 9 9 9 9
7 8 9 10 11 11 11 11 11 12 11 12 12 12 12 12 11 12 11 10 10 11
6 6 7 9 10 11 11 11 10 10 10 11 11 12 13 13 12 13 13 13 13 13
6 7 8 9 10 10 10 9 9 8 10 11 11 12 12 13 14 15 15 14 14 14
6 7 8 8 9 9 9 9 9 9 10 10 11 12 12 13 15 16 16 15 14 14
5 6 7 7 8 9 9 9 9 10 11 11 11 10 11 11 14 16 16 15 14 14
6 7 7 8 9 10 10 10 10 11 11 11 10 11 10 12 14 15 16 15 14 13
7 8 8 9 10 10 11 11 11 12 12 13 13 8 9 12 13 15 15 14 13 12
8 9 9 10 11 11 11 12 12 12 12 13 12 9 10 12 12 13 14 14 13 12
9 10 11 11 12 12 12 12 13 13 13 13 13 10 10 11 11 12 13 12 12 11
10 11 13 12 12 12 12 14 12 14 13 13 13 11 7 10 11 12 11 9 9 7
11 12 13 13 12 12 13 13 13 14 13 12 11 9 9 10 10 10 10 9 9 7
Wind_Direction
277 282 290 295 296 292 287 282 280 267 248 254 252 245 246 255 257 260 257 259 262 267
285 298 300 301 298 292 290 283 279 267 257 250 246 245 246 246 251 246 248 251 256 253
303 303 304 300 297 296 295 288 278 265 259 252 248 243 238 242 249 249 251 252 251 250
311 310 309 305 306 305 301 291 281 270 262 257 251 246 246 250 253 253 253 252 246 250
300 309 313 321 323 319 312 306 294 289 282 275 269 262 258 254 254 252 251 248 245 244
314 322 324 326 327 326 320 314 307 293 281 278 271 266 261 257 257 253 249 247 243 241
316 323 323 321 320 322 325 319 315 306 295 287 282 276 271 266 263 257 254 249 242 244
315 316 316 322 327 325 324 314 307 300 294 290 289 282 281 280 267 261 262 256 243 238
313 317 317 320 320 318 314 312 312 306 303 299 290 283 269 271 272 272 265 258 255 243
294 300 307 309 310 309 311 312 309 307 305 300 298 302 295 282 270 269 268 266 262 251
288 295 301 301 301 301 303 303 302 299 297 293 288 288 293 297 284 274 270 266 254 254
291 290 293 293 297 299 299 298 294 291 287 284 288 307 310 308 295 283 277 271 260 248
288 288 290 292 293 291 284 283 285 285 284 286 286 294 313 305 292 284 285 280 274 226
282 277 278 282 279 278 278 281 282 283 287 293 295 294 303 300 292 285 288 279 269 231